EA3BIN-13 Weather Reports


Display with metric or nautical units.
time (UTC)temp
F
wind
direction
speed
MPH
gust
MPH
rain 1hr
in
rain 24hr
in
rain mn
in
humidity
%
barometer
mb
20260508161918 70 0.0 0.0 0.00 0.00 0.00 65 1012.7
20260508160919 68 0.0 0.0 0.00 0.00 0.00 72 1012.7
20260508155918 67 0.0 0.0 0.00 0.00 0.00 70 1013.1
20260508154918 69 0.0 0.0 0.00 0.00 0.00 64 1013.0
20260508153918 72 0.0 0.0 0.00 0.00 0.00 55 1012.6
20260508152918 74 0.0 0.0 0.00 0.00 0.00 51 1012.5
20260508151923 77 0.0 0.0 0.00 0.00 0.00 45 1012.2
20260508150918 82 0.0 0.0 0.00 0.00 0.00 38 1011.7
20260508145918 79 0.0 0.0 0.00 0.00 0.00 42 1011.9
20260508144918 84 0.0 0.0 0.00 0.00 0.00 35 1011.6
20260508143918 97 0.0 0.0 0.00 0.00 0.00 25 1010.4
20260508142918 92 0.0 0.0 0.00 0.00 0.00 32 1010.7
20260508141928 78 0.0 0.0 0.00 0.00 0.00 44 1012.2
20260508140918 86 0.0 0.0 0.00 0.00 0.00 36 1011.6
20260508135918 84 0.0 0.0 0.00 0.00 0.00 37 1011.9
20260508134918 86 0.0 0.0 0.00 0.00 0.00 35 1011.9
20260508133918 81 0.0 0.0 0.00 0.00 0.00 40 1012.4
20260508132918 76 0.0 0.0 0.00 0.00 0.00 48 1013.0
20260508131918 73 0.0 0.0 0.00 0.00 0.00 48 1013.5
20260508130918 74 0.0 0.0 0.00 0.00 0.00 51 1013.3
20260508125918 75 0.0 0.0 0.00 0.00 0.00 54 1013.0
20260508124923 69 0.0 0.0 0.00 0.00 0.00 64 1013.7
20260508123918 72 0.0 0.0 0.00 0.00 0.00 57 1013.6
20260508122918 73 0.0 0.0 0.00 0.00 0.00 55 1013.4
20260508121918 73 0.0 0.0 0.00 0.00 0.00 55 1013.4
20260508120918 74 0.0 0.0 0.00 0.00 0.00 52 1013.3
20260508115923 73 0.0 0.0 0.00 0.00 0.00 53 1013.3
20260508114918 72 0.0 0.0 0.00 0.00 0.00 55 1013.4
20260508113918 73 0.0 0.0 0.00 0.00 0.00 52 1013.4
20260508112918 75 0.0 0.0 0.00 0.00 0.00 52 1013.0
20260508111918 75 0.0 0.0 0.00 0.00 0.00 54 1013.2
20260508110939 72 0.0 0.0 0.00 0.00 0.00 59 1013.4
20260508105923 72 0.0 0.0 0.00 0.00 0.00 57 1013.4
20260508104918 72 0.0 0.0 0.00 0.00 0.00 57 1013.3
20260508103918 72 0.0 0.0 0.00 0.00 0.00 56 1013.6
20260508102918 74 0.0 0.0 0.00 0.00 0.00 55 1013.5
20260508101918 75 0.0 0.0 0.00 0.00 0.00 54 1013.4
20260508100918 72 0.0 0.0 0.00 0.00 0.00 61 1013.9
20260508095918 72 0.0 0.0 0.00 0.00 0.00 60 1013.7
20260508094918 69 0.0 0.0 0.00 0.00 0.00 66 1014.0
20260508093918 69 0.0 0.0 0.00 0.00 0.00 69 1014.1
20260508092918 66 0.0 0.0 0.00 0.00 0.00 74 1014.4
20260508091918 67 0.0 0.0 0.00 0.00 0.00 74 1014.2
20260508090923 67 0.0 0.0 0.00 0.00 0.00 71 1014.1
20260508085918 67 0.0 0.0 0.00 0.00 0.00 75 1014.1
20260508084918 66 0.0 0.0 0.00 0.00 0.00 77 1014.1
20260508083918 66 0.0 0.0 0.00 0.00 0.00 82 1014.1
20260508082918 64 0.0 0.0 0.00 0.00 0.00 93 1014.0
20260508081918 63 0.0 0.0 0.00 0.00 0.00 10 1014.1
20260508080918 61 0.0 0.0 0.00 0.00 0.00 10 1014.2
20260508075918 60 0.0 0.0 0.00 0.00 0.00 10 1014.3
20260508074918 59 0.0 0.0 0.00 0.00 0.00 10 1014.3
20260508073918 57 0.0 0.0 0.00 0.00 0.00 10 1014.4
20260508072918 56 0.0 0.0 0.00 0.00 0.00 10 1014.6
20260508071918 54 0.0 0.0 0.00 0.00 0.00 10 1014.6
20260508070918 54 0.0 0.0 0.00 0.00 0.00 10 1014.5
20260508065918 53 0.0 0.0 0.00 0.00 0.00 10 1014.7
20260508064918 51 0.0 0.0 0.00 0.00 0.00 10 1014.6
20260508063918 51 0.0 0.0 0.00 0.00 0.00 10 1014.9
20260508062918 50 0.0 0.0 0.00 0.00 0.00 10 1014.8
20260508061923 50 0.0 0.0 0.00 0.00 0.00 10 1014.9
20260508060918 50 0.0 0.0 0.00 0.00 0.00 10 1014.6
20260508055918 51 0.0 0.0 0.00 0.00 0.00 10 1014.5
20260508054918 51 0.0 0.0 0.00 0.00 0.00 10 1014.6
20260508053918 49 0.0 0.0 0.00 0.00 0.00 10 1014.7
20260508052918 50 0.0 0.0 0.00 0.00 0.00 10 1014.5
20260508051918 49 0.0 0.0 0.00 0.00 0.00 10 1014.4
20260508050918 49 0.0 0.0 0.00 0.00 0.00 10 1014.3
20260508045918 48 0.0 0.0 0.00 0.00 0.00 10 1014.3
20260508044918 47 0.0 0.0 0.00 0.00 0.00 10 1014.4
20260508043918 47 0.0 0.0 0.00 0.00 0.00 10 1014.5
20260508042923 48 0.0 0.0 0.00 0.00 0.00 10 1014.3
20260508041918 47 0.0 0.0 0.00 0.00 0.00 10 1014.2
20260508040918 48 0.0 0.0 0.00 0.00 0.00 10 1014.1
20260508035918 48 0.0 0.0 0.00 0.00 0.00 10 1014.0
20260508034923 49 0.0 0.0 0.00 0.00 0.00 10 1013.9
20260508033918 49 0.0 0.0 0.00 0.00 0.00 10 1014.0
20260508032918 49 0.0 0.0 0.00 0.00 0.00 10 1014.0
20260508031929 49 0.0 0.0 0.00 0.00 0.00 10 1013.9
20260508030923 49 0.0 0.0 0.00 0.00 0.00 10 1014.0
20260508025918 49 0.0 0.0 0.00 0.00 0.00 10 1014.0
20260508024918 49 0.0 0.0 0.00 0.00 0.00 10 1013.9
20260508023918 50 0.0 0.0 0.00 0.00 0.00 10 1014.0
20260508022918 50 0.0 0.0 0.00 0.00 0.00 10 1014.1
20260508021918 50 0.0 0.0 0.00 0.00 0.00 10 1014.1
20260508020923 51 0.0 0.0 0.00 0.00 0.00 10 1014.0
20260508015923 51 0.0 0.0 0.00 0.00 0.00 10 1014.2
20260508014918 52 0.0 0.0 0.00 0.00 0.00 10 1014.0
20260508013918 53 0.0 0.0 0.00 0.00 0.00 10 1014.0
20260508012923 53 0.0 0.0 0.00 0.00 0.00 10 1014.0
20260508011918 54 0.0 0.0 0.00 0.00 0.00 10 1014.1
20260508010918 54 0.0 0.0 0.00 0.00 0.00 10 1014.2
20260508005923 53 0.0 0.0 0.00 0.00 0.00 10 1014.4
20260508004918 54 0.0 0.0 0.00 0.00 0.00 10 1014.4
20260508003918 54 0.0 0.0 0.00 0.00 0.00 10 1014.2
20260508002924 54 0.0 0.0 0.00 0.00 0.00 10 1014.3
20260508001918 54 0.0 0.0 0.00 0.00 0.00 10 1014.4
20260508000918 55 0.0 0.0 0.00 0.00 0.00 10 1014.5
20260507235918 55 0.0 0.0 0.00 0.00 0.00 10 1014.5
20260507234918 55 0.0 0.0 0.00 0.00 0.00 10 1014.5
20260507233918 55 0.0 0.0 0.00 0.00 0.00 10 1014.6
20260507232923 55 0.0 0.0 0.00 0.00 0.00 10 1014.7
20260507231918 55 0.0 0.0 0.00 0.00 0.00 10 1014.7
20260507230918 55 0.0 0.0 0.00 0.00 0.00 10 1014.9
20260507225918 55 0.0 0.0 0.00 0.00 0.00 10 1014.9
20260507224918 55 0.0 0.0 0.00 0.00 0.00 10 1015.0
20260507223923 55 0.0 0.0 0.00 0.00 0.00 10 1015.0
20260507222918 55 0.0 0.0 0.00 0.00 0.00 10 1015.1
20260507221918 54 0.0 0.0 0.00 0.00 0.00 10 1015.1
20260507220918 54 0.0 0.0 0.00 0.00 0.00 10 1015.2
20260507215918 54 0.0 0.0 0.00 0.00 0.00 10 1015.2
20260507214918 55 0.0 0.0 0.00 0.00 0.00 10 1015.2
20260507213918 55 0.0 0.0 0.00 0.00 0.00 10 1015.2
20260507212918 55 0.0 0.0 0.00 0.00 0.00 10 1015.1
20260507211918 55 0.0 0.0 0.00 0.00 0.00 10 1015.2
20260507210918 56 0.0 0.0 0.00 0.00 0.00 10 1015.0
20260507205918 55 0.0 0.0 0.00 0.00 0.00 10 1015.0
20260507204918 55 0.0 0.0 0.00 0.00 0.00 10 1015.0
20260507203923 56 0.0 0.0 0.00 0.00 0.00 10 1014.8
20260507202923 56 0.0 0.0 0.00 0.00 0.00 10 1014.7
20260507201918 56 0.0 0.0 0.00 0.00 0.00 10 1014.6
20260507200918 56 0.0 0.0 0.00 0.00 0.00 10 1014.7
20260507195918 56 0.0 0.0 0.00 0.00 0.00 10 1014.6
20260507194918 57 0.0 0.0 0.00 0.00 0.00 10 1014.3
20260507193918 57 0.0 0.0 0.00 0.00 0.00 10 1013.9
20260507192923 58 0.0 0.0 0.00 0.00 0.00 10 1013.7
20260507191918 58 0.0 0.0 0.00 0.00 0.00 10 1013.6
20260507190918 58 0.0 0.0 0.00 0.00 0.00 10 1013.5
20260507185918 59 0.0 0.0 0.00 0.00 0.00 10 1013.3
20260507184918 59 0.0 0.0 0.00 0.00 0.00 10 1013.1
20260507183918 61 0.0 0.0 0.00 0.00 0.00 96 1013.0
20260507182918 62 0.0 0.0 0.00 0.00 0.00 88 1012.7
20260507181918 62 0.0 0.0 0.00 0.00 0.00 81 1012.5
20260507180924 65 0.0 0.0 0.00 0.00 0.00 69 1012.1
20260507175918 67 0.0 0.0 0.00 0.00 0.00 66 1011.8
20260507174918 65 0.0 0.0 0.00 0.00 0.00 66 1011.7
20260507173918 67 0.0 0.0 0.00 0.00 0.00 64 1011.6
20260507172918 69 0.0 0.0 0.00 0.00 0.00 52 1011.4
20260507171918 83 0.0 0.0 0.00 0.00 0.00 36 1009.9
20260507170929 78 0.0 0.0 0.00 0.00 0.00 40 1010.2
20260507165918 88 0.0 0.0 0.00 0.00 0.00 32 1009.3
20260507164918 83 0.0 0.0 0.00 0.00 0.00 34 1009.7
20260507163918 86 0.0 0.0 0.00 0.00 0.00 33 1009.5
20260507162918 106 0.0 0.0 0.00 0.00 0.00 20 1007.9